Regional Weather Roundup
Issued by NWS Cleveland, OH

Home | Current Version | Previous Version | Graphics & Text | Print | Product List | Glossary On
Versions: 1 2 3 4 5 6 7 8 9 10 11 12 13 14 15 16 17 18 19 20 21 22 23 24 25 26 27 28 29 30 31 32 33 34 35 36 37 38 39 40 41 42 43 44 45 46 47 48 49 50
000
ASUS41 KCLE 221010
RWRCLE
OHIO REGIONAL WEATHER ROUNDUP
NATIONAL WEATHER SERVICE WILMINGTON, OH
500 AM EST SUN JAN 22 2017

NOTE: "FAIR" INDICATES FEW OR NO CLOUDS BELOW 12,000 FEET WITH NO
SIGNIFICANT WEATHER AND/OR OBSTRUCTIONS TO VISIBILITY.

OHZ001>008-015>018-024>027-034-035-043-044-221100-
   NORTHWEST OHIO

CITY           SKY/WX    TMP DP  RH WIND       PRES   REMARKS
DEFIANCE       LGT RAIN  49  46  90 S8        29.58F
FINDLAY        LGT RAIN  49  45  86 SW5       29.58F
TOLEDO EXPRESS FOG       42  42 100 SE3       29.57F VSB 1/4
TOLEDO EXEC    FOG       46  46 100 SE5       29.58F VSB 1/4
LIMA           FOG       46  46 100 CALM      29.60S VSB 3/4
$$

OHZ009>014-019>023-028>033-038-089-221100-
   NORTHEAST OHIO

CITY           SKY/WX    TMP DP  RH WIND       PRES   REMARKS
CLE-HOPKINS    MOCLDY    52  47  83 SE7       29.64F
CLE-LAKEFRONT  FAIR      55  50  83 SE10      29.61F
CUY CO. ARPT   NOT AVBL
LORAIN-ELYRIA  FAIR      47  45  93 SE6       29.61F FOG
ASHTABULA      LGT RAIN  50  49  96 S3        29.66F
AKRON-CANTON   CLOUDY    52  49  89 SE6       29.63F
WOOSTER        FAIR      46  45  96 E3        29.62F
MANSFIELD      FAIR      47  46  97 SE3       29.61F
YOUNGSTOWN     LGT RAIN  50  48  93 E5        29.66F
$$

OHZ042-051>053-060>062-070>072-077>081-221100-
  SOUTHWEST OHIO

CITY           SKY/WX    TMP DP  RH WIND       PRES   REMARKS
CINC-COVINGTON FAIR      48  47  96 E6        29.56F
CINC-LUNKEN    FOG       41  41 100 CALM      29.58S VSB 1/4
HAMILTON       FOG       39  39 100 CALM      29.59R VSB 1/4
DAYTON         FOG       46  45  96 SE3       29.60R VSB 1/4
WRIGHT-PAT AFB NOT AVBL
DAYTON GENERAL FAIR      48  47  96 E6        29.58R
WILMINGTON     FAIR      47  47 100 CALM      29.58R
$$

OHZ036-037-039>041-045>050-054>059-063>069-073>076-082>088-221100-
  CENTRAL AND SOUTHEAST OHIO

CITY           SKY/WX    TMP DP  RH WIND       PRES   REMARKS
COLUMBUS       FAIR      48  45  89 E3        29.58F
OSU AIRPORT    FOG       46  46 100 E5        29.58F VSB 1/4
BOLTON FIELD   CLOUDY    44  44 100 E3        29.60S VSB 1/4
RICKENBACK AFB   N/A     45  45 100 CALM      29.58S FOG
NEWARK         FOG       43  42  97 CALM      29.60F VSB 1/4
MARION         FOG       45  44  97 SE3       29.61F VSB 3/4
LANCASTER      FOG       48  46  93 CALM      29.60S VSB 1/4
ZANESVILLE     CLOUDY    52  49  89 SE8       29.60F
NEW PHILLY     CLOUDY    50  50 100 E5        29.63F
$$




USA.gov is the U.S. government's official web portal to all federal, state and local government web resources and services.